| time (UTC) | temp F | wind direction | speed MPH | gust MPH | rain 1hr in | rain 24hr in | rain mn in | humidity % | barometer mb |
| 20260904122251 | 91 | 94 | 4.0 | 10.0 | 0.00 | 0.00 | 0.00 | 35 | 1016.4 |
| 20260904121751 | 91 | 355 | 4.0 | 10.0 | 0.00 | 0.00 | 0.00 | 35 | 1016.4 |
| 20260904121251 | 91 | 0 | 5.0 | 9.0 | 0.00 | 0.00 | 0.00 | 36 | 1016.5 |
| 20260904120751 | 91 | 317 | 5.0 | 11.0 | 0.00 | 0.00 | 0.00 | 33 | 1016.6 |
| 20260904120251 | 91 | 9 | 5.0 | 12.0 | 0.00 | 0.00 | 0.00 | 33 | 1016.6 |
| 20260904115751 | 91 | 344 | 5.0 | 14.0 | 0.00 | 0.00 | 0.00 | 33 | 1016.7 |
| 20260904115251 | 91 | 327 | 6.0 | 15.0 | 0.00 | 0.00 | 0.00 | 35 | 1016.8 |
| 20260904114751 | 90 | 39 | 6.0 | 12.0 | 0.00 | 0.00 | 0.00 | 33 | 1016.8 |
| 20260904114251 | 90 | 54 | 6.0 | 10.0 | 0.00 | 0.00 | 0.00 | 33 | 1016.8 |
| 20260904113751 | 90 | 14 | 8.0 | 11.0 | 0.00 | 0.00 | 0.00 | 34 | 1017.0 |
| 20260904113251 | 90 | 0 | 9.0 | 16.0 | 0.00 | 0.00 | 0.00 | 33 | 1017.1 |
| 20260904112751 | 90 | 65 | 7.0 | 16.0 | 0.00 | 0.00 | 0.00 | 35 | 1017.1 |
| 20260904112251 | 90 | 34 | 8.0 | 16.0 | 0.00 | 0.00 | 0.00 | 34 | 1017.1 |
| 20260904111751 | 90 | 45 | 7.0 | 15.0 | 0.00 | 0.00 | 0.00 | 34 | 1017.2 |
| 20260904111251 | 90 | 5 | 8.0 | 12.0 | 0.00 | 0.00 | 0.00 | 33 | 1017.1 |
| 20260904110751 | 90 | 39 | 8.0 | 16.0 | 0.00 | 0.00 | 0.00 | 33 | 1017.1 |
| 20260904110251 | 90 | 11 | 9.0 | 16.0 | 0.00 | 0.00 | 0.00 | 34 | 1017.3 |
| 20260904105751 | 90 | 69 | 10.0 | 19.0 | 0.00 | 0.00 | 0.00 | 32 | 1017.2 |
| 20260904105251 | 90 | 40 | 9.0 | 16.0 | 0.00 | 0.00 | 0.00 | 32 | 1017.1 |
| 20260904104751 | 90 | 44 | 8.0 | 14.0 | 0.00 | 0.00 | 0.00 | 31 | 1017.1 |
| 20260904104251 | 90 | 100 | 7.0 | 11.0 | 0.00 | 0.00 | 0.00 | 32 | 1017.2 |
| 20260904103751 | 90 | 94 | 8.0 | 13.0 | 0.00 | 0.00 | 0.00 | 36 | 1017.2 |
| 20260904103251 | 89 | 84 | 10.0 | 18.0 | 0.00 | 0.00 | 0.00 | 32 | 1017.2 |
| 20260904102751 | 89 | 94 | 10.0 | 17.0 | 0.00 | 0.00 | 0.00 | 33 | 1017.3 |
| 20260904102251 | 89 | 90 | 12.0 | 17.0 | 0.00 | 0.00 | 0.00 | 32 | 1017.3 |
| 20260904101751 | 89 | 90 | 11.0 | 20.0 | 0.00 | 0.00 | 0.00 | 33 | 1017.3 |
| 20260904101251 | 89 | 97 | 11.0 | 21.0 | 0.00 | 0.00 | 0.00 | 32 | 1017.4 |
| 20260904100751 | 89 | 64 | 12.0 | 17.0 | 0.00 | 0.00 | 0.00 | 33 | 1017.5 |
| 20260904100251 | 89 | 67 | 11.0 | 19.0 | 0.00 | 0.00 | 0.00 | 32 | 1017.5 |
| 20260904095751 | 89 | 79 | 10.0 | 17.0 | 0.00 | 0.00 | 0.00 | 34 | 1017.4 |
| 20260904095251 | 89 | 80 | 11.0 | 16.0 | 0.00 | 0.00 | 0.00 | 33 | 1017.4 |
| 20260904094751 | 89 | 84 | 11.0 | 19.0 | 0.00 | 0.00 | 0.00 | 32 | 1017.5 |
| 20260904094251 | 89 | 80 | 10.0 | 13.0 | 0.00 | 0.00 | 0.00 | 32 | 1017.4 |
| 20260904093751 | 89 | 84 | 11.0 | 21.0 | 0.00 | 0.00 | 0.00 | 33 | 1017.5 |
| 20260904093251 | 89 | 85 | 11.0 | 17.0 | 0.00 | 0.00 | 0.00 | 34 | 1017.6 |
| 20260904092751 | 88 | 74 | 10.0 | 19.0 | 0.00 | 0.00 | 0.00 | 34 | 1017.5 |
| 20260904092251 | 89 | 58 | 9.0 | 19.0 | 0.00 | 0.00 | 0.00 | 33 | 1017.6 |
| 20260904091751 | 89 | 78 | 8.0 | 14.0 | 0.00 | 0.00 | 0.00 | 36 | 1017.6 |
| 20260904091251 | 88 | 52 | 9.0 | 15.0 | 0.00 | 0.00 | 0.00 | 34 | 1017.7 |
| 20260904090751 | 88 | 76 | 8.0 | 16.0 | 0.00 | 0.00 | 0.00 | 33 | 1017.7 |
| 20260904090252 | 88 | 71 | 9.0 | 13.0 | 0.00 | 0.00 | 0.00 | 36 | 1017.7 |
| 20260904085751 | 88 | 69 | 12.0 | 20.0 | 0.00 | 0.00 | 0.00 | 34 | 1017.8 |
| 20260904085252 | 88 | 65 | 11.0 | 19.0 | 0.00 | 0.00 | 0.00 | 34 | 1017.8 |
| 20260904084752 | 88 | 66 | 11.0 | 17.0 | 0.00 | 0.00 | 0.00 | 35 | 1017.8 |
| 20260904084252 | 88 | 42 | 10.0 | 17.0 | 0.00 | 0.00 | 0.00 | 34 | 1017.8 |
| 20260904083752 | 87 | 53 | 12.0 | 15.0 | 0.00 | 0.00 | 0.00 | 33 | 1017.9 |
| 20260904083252 | 87 | 71 | 13.0 | 20.0 | 0.00 | 0.00 | 0.00 | 35 | 1018.0 |
| 20260904082752 | 87 | 75 | 12.0 | 20.0 | 0.00 | 0.00 | 0.00 | 34 | 1018.0 |
| 20260904082252 | 87 | 80 | 11.0 | 19.0 | 0.00 | 0.00 | 0.00 | 35 | 1018.0 |
| 20260904081752 | 87 | 64 | 13.0 | 19.0 | 0.00 | 0.00 | 0.00 | 35 | 1017.9 |
| 20260904081252 | 87 | 38 | 13.0 | 18.0 | 0.00 | 0.00 | 0.00 | 35 | 1017.9 |
| 20260904080752 | 87 | 62 | 11.0 | 19.0 | 0.00 | 0.00 | 0.00 | 35 | 1017.9 |
| 20260904080252 | 87 | 50 | 11.0 | 16.0 | 0.00 | 0.00 | 0.00 | 35 | 1017.8 |
| 20260904075806 | 87 | 63 | 12.0 | 21.0 | 0.00 | 0.00 | 0.00 | 35 | 1017.8 |
| 20260904075252 | 87 | 76 | 8.0 | 22.0 | 0.00 | 0.00 | 0.00 | 34 | 1017.7 |
| 20260904074752 | 87 | 59 | 6.0 | 11.0 | 0.00 | 0.00 | 0.00 | 36 | 1017.7 |
| 20260904074252 | 86 | 41 | 8.0 | 11.0 | 0.00 | 0.00 | 0.00 | 36 | 1017.6 |
| 20260904073818 | 86 | 57 | 7.0 | 11.0 | 0.00 | 0.00 | 0.00 | 36 | 1017.7 |
| 20260904073252 | 86 | 32 | 7.0 | 12.0 | 0.00 | 0.00 | 0.00 | 35 | 1017.7 |
| 20260904072752 | 86 | 5 | 7.0 | 13.0 | 0.00 | 0.00 | 0.00 | 36 | 1017.6 |
| 20260904072252 | 86 | 36 | 8.0 | 11.0 | 0.00 | 0.00 | 0.00 | 36 | 1017.5 |
| 20260904071752 | 85 | 58 | 9.0 | 12.0 | 0.00 | 0.00 | 0.00 | 35 | 1017.6 |
| 20260904071252 | 85 | 28 | 8.0 | 15.0 | 0.00 | 0.00 | 0.00 | 35 | 1017.6 |
| 20260904070752 | 85 | 21 | 6.0 | 12.0 | 0.00 | 0.00 | 0.00 | 37 | 1017.6 |
| 20260904070252 | 85 | 27 | 6.0 | 10.0 | 0.00 | 0.00 | 0.00 | 37 | 1017.5 |
| 20260904065752 | 85 | 53 | 6.0 | 11.0 | 0.00 | 0.00 | 0.00 | 38 | 1017.5 |
| 20260904065252 | 85 | 50 | 7.0 | 13.0 | 0.00 | 0.00 | 0.00 | 37 | 1017.4 |
| 20260904064752 | 84 | 67 | 5.0 | 12.0 | 0.00 | 0.00 | 0.00 | 38 | 1017.5 |
| 20260904064252 | 84 | 43 | 4.0 | 11.0 | 0.00 | 0.00 | 0.00 | 40 | 1017.4 |
| 20260904063752 | 84 | 30 | 5.0 | 10.0 | 0.00 | 0.00 | 0.00 | 37 | 1017.5 |
| 20260904063252 | 84 | 57 | 5.0 | 11.0 | 0.00 | 0.00 | 0.00 | 38 | 1017.4 |
| 20260904062752 | 84 | 36 | 4.0 | 10.0 | 0.00 | 0.00 | 0.00 | 38 | 1017.4 |
| 20260904062252 | 83 | 25 | 3.0 | 8.0 | 0.00 | 0.00 | 0.00 | 39 | 1017.4 |
| 20260904061752 | 83 | 5 | 3.0 | 9.0 | 0.00 | 0.00 | 0.00 | 39 | 1017.3 |
| 20260904061252 | 82 | 11 | 3.0 | 6.0 | 0.00 | 0.00 | 0.00 | 41 | 1017.3 |
| 20260904060752 | 81 | 22 | 1.0 | 7.0 | 0.00 | 0.00 | 0.00 | 45 | 1017.3 |
| 20260904060252 | 80 | 44 | 0.0 | 2.0 | 0.00 | 0.00 | 0.00 | 49 | 1017.3 |
| 20260904055752 | 78 | 313 | 1.0 | 1.0 | 0.00 | 0.00 | 0.00 | 52 | 1017.3 |
| 20260904055252 | 78 | 313 | 2.0 | 3.0 | 0.00 | 0.00 | 0.00 | 52 | 1017.3 |
| 20260904054752 | 77 | 315 | 2.0 | 4.0 | 0.00 | 0.00 | 0.00 | 50 | 1017.3 |
| 20260904054252 | 77 | 317 | 2.0 | 3.0 | 0.00 | 0.00 | 0.00 | 49 | 1017.3 |
| 20260904053752 | 76 | 311 | 2.0 | 3.0 | 0.00 | 0.00 | 0.00 | 49 | 1017.2 |
| 20260904053252 | 76 | 292 | 1.0 | 2.0 | 0.00 | 0.00 | 0.00 | 48 | 1017.2 |
| 20260904052752 | 76 | 292 | 1.0 | 2.0 | 0.00 | 0.00 | 0.00 | 48 | 1017.2 |
| 20260904052252 | 75 | 292 | 2.0 | 2.0 | 0.00 | 0.00 | 0.00 | 48 | 1017.2 |
| 20260904051752 | 75 | 292 | 2.0 | 4.0 | 0.00 | 0.00 | 0.00 | 49 | 1017.2 |
| 20260904051252 | 75 | 295 | 2.0 | 4.0 | 0.00 | 0.00 | 0.00 | 47 | 1017.1 |
| 20260904050752 | 75 | 301 | 1.0 | 2.0 | 0.00 | 0.00 | 0.00 | 47 | 1017.1 |
| 20260904045752 | 74 | 301 | 2.0 | 3.0 | 0.00 | 0.00 | 0.00 | 48 | 1017.0 |
| 20260904045252 | 74 | 302 | 1.0 | 3.0 | 0.00 | 0.00 | 0.00 | 49 | 1016.9 |
| 20260904044752 | 74 | 303 | 1.0 | 2.0 | 0.00 | 0.00 | 0.00 | 48 | 1016.8 |
| 20260904044252 | 74 | 300 | 1.0 | 3.0 | 0.00 | 0.00 | 0.00 | 48 | 1016.8 |
| 20260904043752 | 74 | 300 | 2.0 | 3.0 | 0.00 | 0.00 | 0.00 | 48 | 1016.7 |
| 20260904043252 | 73 | 289 | 2.0 | 2.0 | 0.00 | 0.00 | 0.00 | 48 | 1016.7 |
| 20260904042752 | 73 | 290 | 2.0 | 3.0 | 0.00 | 0.00 | 0.00 | 48 | 1016.8 |
| 20260904042300 | 73 | 291 | 2.0 | 3.0 | 0.00 | 0.00 | 0.00 | 48 | 1016.8 |
| 20260904041752 | 73 | 294 | 2.0 | 3.0 | 0.00 | 0.00 | 0.00 | 48 | 1016.7 |
| 20260904041252 | 74 | 307 | 2.0 | 3.0 | 0.00 | 0.00 | 0.00 | 48 | 1016.7 |
| 20260904040752 | 74 | 309 | 2.0 | 3.0 | 0.00 | 0.00 | 0.00 | 48 | 1016.6 |
| 20260904040252 | 75 | 309 | 2.0 | 3.0 | 0.00 | 0.00 | 0.00 | 46 | 1016.6 |
| 20260904035752 | 76 | 315 | 2.0 | 3.0 | 0.00 | 0.00 | 0.00 | 45 | 1016.6 |
| 20260904035252 | 77 | 319 | 1.0 | 3.0 | 0.00 | 0.00 | 0.00 | 42 | 1016.5 |
| 20260904034752 | 77 | 296 | 0.0 | 2.0 | 0.00 | 0.00 | 0.00 | 41 | 1016.5 |
| 20260904034252 | 77 | 86 | 0.0 | 0.0 | 0.00 | 0.00 | 0.00 | 42 | 1016.4 |
| 20260904033752 | 78 | 86 | 0.0 | 0.0 | 0.00 | 0.00 | 0.00 | 41 | 1016.3 |
| 20260904033252 | 78 | 88 | 0.0 | 0.0 | 0.00 | 0.00 | 0.00 | 41 | 1016.3 |
| 20260904032752 | 78 | 88 | 0.0 | 0.0 | 0.00 | 0.00 | 0.00 | 41 | 1016.1 |
| 20260904032252 | 78 | 88 | 2.0 | 2.0 | 0.00 | 0.00 | 0.00 | 42 | 1016.2 |
| 20260904031752 | 78 | 71 | 2.0 | 4.0 | 0.00 | 0.00 | 0.00 | 41 | 1016.3 |
| 20260904031252 | 79 | 258 | 2.0 | 3.0 | 0.00 | 0.00 | 0.00 | 40 | 1016.3 |
| 20260904030752 | 79 | 254 | 2.0 | 3.0 | 0.00 | 0.00 | 0.00 | 39 | 1016.4 |
| 20260904030252 | 79 | 254 | 2.0 | 4.0 | 0.00 | 0.00 | 0.00 | 40 | 1016.4 |
| 20260904025752 | 78 | 252 | 2.0 | 3.0 | 0.00 | 0.00 | 0.00 | 40 | 1016.3 |
| 20260904025252 | 78 | 252 | 3.0 | 4.0 | 0.00 | 0.00 | 0.00 | 40 | 1016.2 |
| 20260904024752 | 78 | 251 | 2.0 | 4.0 | 0.00 | 0.00 | 0.00 | 41 | 1016.2 |
| 20260904024252 | 78 | 273 | 2.0 | 3.0 | 0.00 | 0.00 | 0.00 | 42 | 1016.3 |
| 20260904023752 | 79 | 273 | 2.0 | 3.0 | 0.00 | 0.00 | 0.00 | 43 | 1016.3 |
| 20260904023252 | 79 | 273 | 2.0 | 3.0 | 0.00 | 0.00 | 0.00 | 42 | 1016.3 |
| 20260904022752 | 79 | 273 | 2.0 | 3.0 | 0.00 | 0.00 | 0.00 | 40 | 1016.2 |
| 20260904022252 | 79 | 273 | 3.0 | 3.0 | 0.00 | 0.00 | 0.00 | 40 | 1016.4 |
| 20260904021752 | 78 | 273 | 3.0 | 4.0 | 0.00 | 0.00 | 0.00 | 40 | 1016.3 |
| 20260904021253 | 78 | 273 | 3.0 | 6.0 | 0.00 | 0.00 | 0.00 | 44 | 1016.3 |
| 20260904020752 | 77 | 278 | 3.0 | 4.0 | 0.00 | 0.00 | 0.00 | 41 | 1016.2 |
| 20260904020252 | 76 | 271 | 2.0 | 4.0 | 0.00 | 0.00 | 0.00 | 43 | 1016.2 |
| 20260904015752 | 76 | 269 | 1.0 | 3.0 | 0.00 | 0.00 | 0.00 | 44 | 1016.1 |
| 20260904015252 | 76 | 269 | 1.0 | 2.0 | 0.00 | 0.00 | 0.00 | 46 | 1016.2 |
| 20260904014752 | 77 | 270 | 1.0 | 4.0 | 0.00 | 0.00 | 0.00 | 45 | 1016.3 |
| 20260904014252 | 77 | 95 | 0.0 | 2.0 | 0.00 | 0.00 | 0.00 | 41 | 1016.2 |
| 20260904013752 | 77 | 95 | 0.0 | 2.0 | 0.00 | 0.00 | 0.00 | 41 | 1016.1 |
| 20260904013252 | 78 | 95 | 0.0 | 2.0 | 0.00 | 0.00 | 0.00 | 41 | 1016.1 |
| 20260904012752 | 78 | 96 | 0.0 | 0.0 | 0.00 | 0.00 | 0.00 | 39 | 1016.0 |
| 20260904012252 | 79 | 96 | 0.0 | 0.0 | 0.00 | 0.00 | 0.00 | 40 | 1016.0 |
| 20260904011752 | 79 | 96 | 0.0 | 0.0 | 0.00 | 0.00 | 0.00 | 39 | 1016.0 |
| 20260904011252 | 79 | 96 | 0.0 | 0.0 | 0.00 | 0.00 | 0.00 | 39 | 1015.9 |
| 20260904010752 | 80 | 96 | 0.0 | 0.0 | 0.00 | 0.00 | 0.00 | 40 | 1016.0 |
| 20260904010252 | 80 | 96 | 1.0 | 0.0 | 0.00 | 0.00 | 0.00 | 39 | 1016.1 |
| 20260904005752 | 80 | 95 | 2.0 | 3.0 | 0.00 | 0.00 | 0.00 | 38 | 1015.9 |
| 20260904005252 | 81 | 80 | 2.0 | 3.0 | 0.00 | 0.00 | 0.00 | 38 | 1016.0 |
| 20260904004752 | 80 | 280 | 2.0 | 3.0 | 0.00 | 0.00 | 0.00 | 38 | 1015.9 |
| 20260904004252 | 79 | 280 | 2.0 | 3.0 | 0.00 | 0.00 | 0.00 | 38 | 1015.7 |
| 20260904003752 | 79 | 280 | 2.0 | 4.0 | 0.00 | 0.00 | 0.00 | 39 | 1015.7 |
| 20260904003252 | 80 | 262 | 0.0 | 3.0 | 0.00 | 0.00 | 0.00 | 40 | 1015.7 |
| 20260904002752 | 81 | 84 | 1.0 | 2.0 | 0.00 | 0.00 | 0.00 | 38 | 1015.7 |
| 20260904002253 | 81 | 84 | 2.0 | 3.0 | 0.00 | 0.00 | 0.00 | 36 | 1015.6 |
| 20260904001752 | 81 | 80 | 2.0 | 7.0 | 0.00 | 0.00 | 0.00 | 35 | 1015.6 |
| 20260904001253 | 82 | 109 | 1.0 | 4.0 | 0.00 | 0.00 | 0.00 | 35 | 1015.5 |
| 20260904000752 | 82 | 41 | 0.0 | 0.0 | 0.00 | 0.00 | 0.00 | 34 | 1015.5 |
| 20260904000252 | 82 | 41 | 0.0 | 0.0 | 0.00 | 0.00 | 0.00 | 35 | 1015.6 |
| 20260903235753 | 82 | 41 | 1.0 | 1.0 | 0.00 | 0.00 | 0.00 | 35 | 1015.6 |
| 20260903235319 | 82 | 41 | 2.0 | 3.0 | 0.00 | 0.00 | 0.00 | 35 | 1015.5 |
| 20260903234752 | 82 | 42 | 1.0 | 3.0 | 0.00 | 0.00 | 0.00 | 35 | 1015.5 |
| 20260903234253 | 82 | 42 | 1.0 | 2.0 | 0.00 | 0.00 | 0.00 | 36 | 1015.6 |
| 20260903233752 | 82 | 41 | 3.0 | 3.0 | 0.00 | 0.00 | 0.00 | 36 | 1015.6 |
| 20260903233253 | 83 | 36 | 4.0 | 9.0 | 0.00 | 0.00 | 0.00 | 35 | 1015.5 |
| 20260903232753 | 82 | 91 | 3.0 | 8.0 | 0.00 | 0.00 | 0.00 | 35 | 1015.4 |
| 20260903232252 | 82 | 125 | 2.0 | 10.0 | 0.00 | 0.00 | 0.00 | 35 | 1015.5 |
| 20260903231753 | 82 | 288 | 2.0 | 4.0 | 0.00 | 0.00 | 0.00 | 35 | 1015.4 |
| 20260903231253 | 83 | 283 | 3.0 | 5.0 | 0.00 | 0.00 | 0.00 | 35 | 1015.4 |
| 20260903230753 | 83 | 73 | 5.0 | 10.0 | 0.00 | 0.00 | 0.00 | 34 | 1015.4 |
| 20260903230253 | 83 | 74 | 6.0 | 12.0 | 0.00 | 0.00 | 0.00 | 34 | 1015.5 |
| 20260903225753 | 84 | 78 | 6.0 | 8.0 | 0.00 | 0.00 | 0.00 | 34 | 1015.6 |
| 20260903225253 | 84 | 74 | 7.0 | 11.0 | 0.00 | 0.00 | 0.00 | 33 | 1015.5 |
| 20260903224753 | 84 | 80 | 6.0 | 9.0 | 0.00 | 0.00 | 0.00 | 33 | 1015.6 |
| 20260903224253 | 84 | 92 | 5.0 | 8.0 | 0.00 | 0.00 | 0.00 | 33 | 1015.4 |
| 20260903223753 | 85 | 80 | 5.0 | 9.0 | 0.00 | 0.00 | 0.00 | 32 | 1015.3 |
| 20260903223253 | 85 | 76 | 6.0 | 9.0 | 0.00 | 0.00 | 0.00 | 32 | 1015.3 |
| 20260903222753 | 85 | 67 | 6.0 | 13.0 | 0.00 | 0.00 | 0.00 | 31 | 1015.3 |
| 20260903222253 | 85 | 101 | 5.0 | 10.0 | 0.00 | 0.00 | 0.00 | 31 | 1015.3 |
| 20260903221753 | 85 | 105 | 4.0 | 7.0 | 0.00 | 0.00 | 0.00 | 32 | 1015.3 |
| 20260903221253 | 85 | 96 | 4.0 | 9.0 | 0.00 | 0.00 | 0.00 | 31 | 1015.3 |
| 20260903220753 | 85 | 105 | 4.0 | 7.0 | 0.00 | 0.00 | 0.00 | 32 | 1015.3 |
| 20260903220253 | 85 | 78 | 6.0 | 10.0 | 0.00 | 0.00 | 0.00 | 32 | 1015.3 |
| 20260903215753 | 85 | 88 | 6.0 | 15.0 | 0.00 | 0.00 | 0.00 | 32 | 1015.2 |
| 20260903215253 | 85 | 49 | 3.0 | 14.0 | 0.00 | 0.00 | 0.00 | 32 | 1015.1 |
| 20260903214757 | 85 | 109 | 2.0 | 6.0 | 0.00 | 0.00 | 0.00 | 32 | 1015.2 |
| 20260903214253 | 85 | 46 | 2.0 | 7.0 | 0.00 | 0.00 | 0.00 | 32 | 1015.3 |
| 20260903213753 | 86 | 355 | 3.0 | 4.0 | 0.00 | 0.00 | 0.00 | 31 | 1015.2 |
| 20260903213253 | 86 | 42 | 5.0 | 10.0 | 0.00 | 0.00 | 0.00 | 31 | 1015.1 |
| 20260903212753 | 87 | 65 | 6.0 | 15.0 | 0.00 | 0.00 | 0.00 | 30 | 1015.0 |
| 20260903212253 | 87 | 49 | 7.0 | 13.0 | 0.00 | 0.00 | 0.00 | 30 | 1015.0 |
| 20260903211753 | 87 | 57 | 7.0 | 18.0 | 0.00 | 0.00 | 0.00 | 30 | 1014.8 |
| 20260903211253 | 87 | 59 | 8.0 | 16.0 | 0.00 | 0.00 | 0.00 | 30 | 1014.9 |
| 20260903210753 | 87 | 71 | 10.0 | 20.0 | 0.00 | 0.00 | 0.00 | 29 | 1014.9 |
| 20260903210253 | 88 | 55 | 11.0 | 19.0 | 0.00 | 0.00 | 0.00 | 29 | 1014.8 |
| 20260903205753 | 87 | 65 | 9.0 | 20.0 | 0.00 | 0.00 | 0.00 | 29 | 1014.8 |
| 20260903205253 | 87 | 61 | 8.0 | 17.0 | 0.00 | 0.00 | 0.00 | 29 | 1014.7 |
| 20260903204753 | 87 | 88 | 10.0 | 18.0 | 0.00 | 0.00 | 0.00 | 29 | 1014.8 |
| 20260903204253 | 87 | 355 | 8.0 | 21.0 | 0.00 | 0.00 | 0.00 | 29 | 1014.7 |
| 20260903203753 | 86 | 71 | 5.0 | 12.0 | 0.00 | 0.00 | 0.00 | 31 | 1014.7 |
| 20260903203253 | 86 | 313 | 4.0 | 10.0 | 0.00 | 0.00 | 0.00 | 34 | 1014.7 |
| 20260903202753 | 86 | 208 | 3.0 | 6.0 | 0.00 | 0.00 | 0.00 | 36 | 1014.8 |
| 20260903202253 | 86 | 26 | 2.0 | 7.0 | 0.00 | 0.00 | 0.00 | 33 | 1014.7 |
| 20260903201753 | 85 | 331 | 1.0 | 4.0 | 0.00 | 0.00 | 0.00 | 34 | 1014.7 |
| 20260903201253 | 85 | 44 | 2.0 | 3.0 | 0.00 | 0.00 | 0.00 | 36 | 1014.7 |
| 20260903200753 | 84 | 136 | 2.0 | 4.0 | 0.00 | 0.00 | 0.00 | 38 | 1014.8 |
| 20260903200253 | 84 | 130 | 2.0 | 4.0 | 0.00 | 0.00 | 0.00 | 39 | 1014.7 |
| 20260903195753 | 84 | 38 | 2.0 | 7.0 | 0.00 | 0.00 | 0.00 | 40 | 1014.7 |
| 20260903195253 | 84 | 87 | 1.0 | 4.0 | 0.00 | 0.00 | 0.00 | 43 | 1014.8 |
| 20260903194753 | 84 | 32 | 1.0 | 4.0 | 0.00 | 0.00 | 0.00 | 41 | 1014.8 |
| 20260903194253 | 83 | 88 | 1.0 | 2.0 | 0.00 | 0.00 | 0.00 | 42 | 1014.7 |
| 20260903193753 | 83 | 111 | 1.0 | 3.0 | 0.00 | 0.00 | 0.00 | 45 | 1014.7 |
| 20260903193253 | 82 | 167 | 2.0 | 0.0 | 0.00 | 0.00 | 0.00 | 46 | 1014.6 |
| 20260903192753 | 82 | 167 | 3.0 | 9.0 | 0.00 | 0.00 | 0.00 | 53 | 1014.6 |
| 20260903192253 | 82 | 148 | 1.0 | 8.0 | 0.00 | 0.00 | 0.00 | 51 | 1014.7 |
| 20260903191753 | 82 | 96 | 1.0 | 1.0 | 0.00 | 0.00 | 0.00 | 51 | 1014.4 |
| 20260903191253 | 83 | 96 | 1.0 | 3.0 | 0.00 | 0.00 | 0.00 | 54 | 1014.4 |
| 20260903190753 | 83 | 45 | 1.0 | 3.0 | 0.00 | 0.00 | 0.00 | 47 | 1014.2 |
| 20260903190253 | 83 | 47 | 2.0 | 3.0 | 0.00 | 0.00 | 0.00 | 48 | 1014.2 |
| 20260903185753 | 83 | 47 | 2.0 | 3.0 | 0.00 | 0.00 | 0.00 | 49 | 1014.2 |
| 20260903185253 | 83 | 79 | 1.0 | 3.0 | 0.00 | 0.00 | 0.00 | 49 | 1014.1 |
| 20260903184753 | 82 | 81 | 1.0 | 3.0 | 0.00 | 0.00 | 0.00 | 52 | 1014.1 |
| 20260903184253 | 83 | 67 | 1.0 | 3.0 | 0.00 | 0.00 | 0.00 | 55 | 1014.0 |
| 20260903183753 | 82 | 22 | 1.0 | 3.0 | 0.00 | 0.00 | 0.00 | 54 | 1013.9 |
| 20260903183253 | 82 | 102 | 1.0 | 3.0 | 0.00 | 0.00 | 0.00 | 58 | 1013.9 |
| 20260903182753 | 83 | 102 | 2.0 | 4.0 | 0.00 | 0.00 | 0.00 | 59 | 1013.9 |
| 20260903182253 | 83 | 296 | 1.0 | 2.0 | 0.00 | 0.00 | 0.00 | 57 | 1013.8 |
| 20260903181753 | 83 | 296 | 1.0 | 2.0 | 0.00 | 0.00 | 0.00 | 57 | 1013.8 |
| 20260903181253 | 83 | 296 | 2.0 | 3.0 | 0.00 | 0.00 | 0.00 | 58 | 1013.8 |
| 20260903180754 | 83 | 302 | 2.0 | 4.0 | 0.00 | 0.00 | 0.00 | 56 | 1013.7 |
| 20260903180253 | 83 | 302 | 3.0 | 3.0 | 0.00 | 0.00 | 0.00 | 54 | 1013.6 |
| 20260903175753 | 84 | 305 | 3.0 | 5.0 | 0.00 | 0.00 | 0.00 | 50 | 1013.5 |
| 20260903175253 | 84 | 313 | 3.0 | 5.0 | 0.00 | 0.00 | 0.00 | 49 | 1013.5 |
| 20260903174753 | 84 | 312 | 3.0 | 6.0 | 0.00 | 0.00 | 0.00 | 48 | 1013.4 |
| 20260903174253 | 84 | 323 | 4.0 | 5.0 | 0.00 | 0.00 | 0.00 | 48 | 1013.4 |
| 20260903173753 | 84 | 302 | 5.0 | 7.0 | 0.00 | 0.00 | 0.00 | 51 | 1013.4 |
| 20260903173253 | 84 | 302 | 4.0 | 7.0 | 0.00 | 0.00 | 0.00 | 54 | 1013.3 |
| 20260903172753 | 85 | 279 | 4.0 | 7.0 | 0.00 | 0.00 | 0.00 | 52 | 1013.1 |
| 20260903172253 | 85 | 271 | 3.0 | 7.0 | 0.00 | 0.00 | 0.00 | 52 | 1013.0 |
| 20260903171753 | 86 | 255 | 2.0 | 4.0 | 0.00 | 0.00 | 0.00 | 51 | 1012.9 |
| 20260903171253 | 87 | 242 | 2.0 | 5.0 | 0.00 | 0.00 | 0.00 | 46 | 1012.8 |
| 20260903170753 | 88 | 27 | 2.0 | 2.0 | 0.00 | 0.00 | 0.00 | 37 | 1012.8 |
| 20260903170253 | 89 | 29 | 2.0 | 3.0 | 0.00 | 0.00 | 0.00 | 35 | 1012.8 |
| 20260903165753 | 89 | 38 | 3.0 | 4.0 | 0.00 | 0.00 | 0.00 | 34 | 1012.7 |
| 20260903165253 | 89 | 40 | 3.0 | 5.0 | 0.00 | 0.00 | 0.00 | 33 | 1012.6 |
| 20260903163856 | 90 | 17 | 4.0 | 8.0 | 0.00 | 0.00 | 0.00 | 33 | 1012.5 |
| 20260903163356 | 90 | 0 | 4.0 | 8.0 | 0.00 | 0.00 | 0.00 | 33 | 1012.6 |
| 20260903162856 | 91 | 34 | 4.0 | 7.0 | 0.00 | 0.00 | 0.00 | 33 | 1012.5 |
| 20260903162356 | 91 | 22 | 4.0 | 6.0 | 0.00 | 0.00 | 0.00 | 33 | 1012.4 |
| 20260903161856 | 91 | 18 | 4.0 | 7.0 | 0.00 | 0.00 | 0.00 | 32 | 1012.5 |
| 20260903161356 | 92 | 23 | 5.0 | 8.0 | 0.00 | 0.00 | 0.00 | 32 | 1012.4 |
| 20260903160856 | 92 | 34 | 4.0 | 8.0 | 0.00 | 0.00 | 0.00 | 32 | 1012.5 |
| 20260903160356 | 92 | 23 | 5.0 | 9.0 | 0.00 | 0.00 | 0.00 | 32 | 1012.4 |
| 20260903155856 | 92 | 22 | 6.0 | 11.0 | 0.00 | 0.00 | 0.00 | 31 | 1012.5 |
| 20260903155356 | 93 | 31 | 6.0 | 13.0 | 0.00 | 0.00 | 0.00 | 31 | 1012.3 |
| 20260903154856 | 93 | 19 | 6.0 | 10.0 | 0.00 | 0.00 | 0.00 | 31 | 1012.3 |
| 20260903154356 | 93 | 17 | 5.0 | 12.0 | 0.00 | 0.00 | 0.00 | 31 | 1012.2 |
| 20260903153856 | 93 | 343 | 5.0 | 10.0 | 0.00 | 0.00 | 0.00 | 31 | 1012.2 |
| 20260903153356 | 94 | 345 | 6.0 | 10.0 | 0.00 | 0.00 | 0.00 | 29 | 1012.1 |
| 20260903152856 | 94 | 49 | 4.0 | 10.0 | 0.00 | 0.00 | 0.00 | 29 | 1012.1 |
| 20260903152356 | 94 | 32 | 5.0 | 9.0 | 0.00 | 0.00 | 0.00 | 30 | 1012.1 |
| 20260903151856 | 94 | 36 | 8.0 | 10.0 | 0.00 | 0.00 | 0.00 | 28 | 1012.1 |
| 20260903151356 | 94 | 58 | 8.0 | 12.0 | 0.00 | 0.00 | 0.00 | 28 | 1012.2 |
| 20260903150856 | 94 | 47 | 8.0 | 12.0 | 0.00 | 0.00 | 0.00 | 28 | 1012.1 |
| 20260903150356 | 94 | 37 | 8.0 | 15.0 | 0.00 | 0.00 | 0.00 | 27 | 1012.1 |
| 20260903145856 | 94 | 46 | 7.0 | 13.0 | 0.00 | 0.00 | 0.00 | 28 | 1012.1 |
| 20260903145356 | 94 | 28 | 7.0 | 14.0 | 0.00 | 0.00 | 0.00 | 28 | 1012.0 |
| 20260903144856 | 94 | 43 | 9.0 | 14.0 | 0.00 | 0.00 | 0.00 | 30 | 1012.1 |
| 20260903144356 | 94 | 355 | 8.0 | 17.0 | 0.00 | 0.00 | 0.00 | 29 | 1012.1 |
| 20260903143856 | 94 | 49 | 7.0 | 13.0 | 0.00 | 0.00 | 0.00 | 30 | 1012.0 |
| 20260903143356 | 94 | 17 | 7.0 | 12.0 | 0.00 | 0.00 | 0.00 | 30 | 1012.1 |
| 20260903142856 | 94 | 5 | 8.0 | 16.0 | 0.00 | 0.00 | 0.00 | 29 | 1012.1 |
| 20260903142356 | 95 | 46 | 7.0 | 15.0 | 0.00 | 0.00 | 0.00 | 29 | 1012.1 |
| 20260903141856 | 95 | 55 | 6.0 | 11.0 | 0.00 | 0.00 | 0.00 | 30 | 1012.0 |
| 20260903141356 | 95 | 39 | 6.0 | 11.0 | 0.00 | 0.00 | 0.00 | 30 | 1012.1 |
| 20260903140856 | 94 | 42 | 6.0 | 9.0 | 0.00 | 0.00 | 0.00 | 28 | 1012.0 |
| 20260903140356 | 94 | 10 | 6.0 | 12.0 | 0.00 | 0.00 | 0.00 | 29 | 1012.1 |
| 20260903135856 | 94 | 57 | 6.0 | 11.0 | 0.00 | 0.00 | 0.00 | 29 | 1012.0 |
| 20260903135356 | 94 | 5 | 7.0 | 14.0 | 0.00 | 0.00 | 0.00 | 28 | 1012.1 |
| 20260903134856 | 94 | 10 | 6.0 | 14.0 | 0.00 | 0.00 | 0.00 | 31 | 1012.1 |
| 20260903134356 | 94 | 16 | 5.0 | 10.0 | 0.00 | 0.00 | 0.00 | 32 | 1012.1 |
| 20260903133856 | 94 | 25 | 6.0 | 10.0 | 0.00 | 0.00 | 0.00 | 30 | 1012.2 |
| 20260903133356 | 94 | 355 | 6.0 | 13.0 | 0.00 | 0.00 | 0.00 | 30 | 1012.2 |
| 20260903132856 | 94 | 47 | 7.0 | 10.0 | 0.00 | 0.00 | 0.00 | 32 | 1012.3 |
| 20260903132356 | 94 | 355 | 7.0 | 15.0 | 0.00 | 0.00 | 0.00 | 30 | 1012.3 |
| 20260903131856 | 94 | 355 | 7.0 | 13.0 | 0.00 | 0.00 | 0.00 | 31 | 1012.4 |
| 20260903131356 | 94 | 340 | 8.0 | 12.0 | 0.00 | 0.00 | 0.00 | 31 | 1012.4 |
| 20260903130856 | 94 | 34 | 7.0 | 14.0 | 0.00 | 0.00 | 0.00 | 31 | 1012.4 |
| 20260903130356 | 94 | 24 | 5.0 | 12.0 | 0.00 | 0.00 | 0.00 | 32 | 1012.5 |
| 20260903125856 | 94 | 15 | 6.0 | 10.0 | 0.00 | 0.00 | 0.00 | 32 | 1012.4 |
| 20260903125356 | 93 | 348 | 8.0 | 13.0 | 0.00 | 0.00 | 0.00 | 33 | 1012.7 |
| 20260903124856 | 93 | 60 | 8.0 | 14.0 | 0.00 | 0.00 | 0.00 | 31 | 1012.6 |
| 20260903124356 | 93 | 34 | 7.0 | 14.0 | 0.00 | 0.00 | 0.00 | 31 | 1012.7 |
| 20260903123856 | 93 | 22 | 8.0 | 16.0 | 0.00 | 0.00 | 0.00 | 32 | 1012.8 |
| 20260903123356 | 93 | 23 | 9.0 | 17.0 | 0.00 | 0.00 | 0.00 | 30 | 1012.7 |
| 20260903122856 | 93 | 63 | 7.0 | 15.0 | 0.00 | 0.00 | 0.00 | 34 | 1012.7 |